Hourly Weather Krabusin

Today, 26 October, Monday

Time Temperature Precipitation Wind Pressure Humidity
00:00 +10°C° 0 mm 4 mps 745 mmHg 90%
01:00 +10°C° 0 mm 4 mps 745 mmHg 91%
02:00 +10°C° 0 mm 4 mps 744 mmHg 92%
03:00 +8°C° 0 mm 4 mps 744 mmHg 93%
04:00 +8°C° 0 mm 4 mps 744 mmHg 93%
05:00 +9°C° 0 mm 3 mps 744 mmHg 94%
06:00 +8°C° 0 mm 3 mps 743 mmHg 96%
07:00 +8°C° 0 mm 3 mps 743 mmHg 97%
08:00 +9°C° 0 mm 3 mps 743 mmHg 94%
09:00 +10°C° 0 mm 3 mps 743 mmHg 91%
10:00 +11°C° 0 mm 4 mps 743 mmHg 88%
11:00 +11°C° 0 mm 4 mps 743 mmHg 86%
12:00 +12°C° 0 mm 4 mps 743 mmHg 84%
13:00 +12°C° 0 mm 4 mps 742 mmHg 83%
14:00 +12°C° 0 mm 4 mps 742 mmHg 83%
15:00 +12°C° 0 mm 3 mps 742 mmHg 83%
16:00 +13°C° 0 mm 3 mps 742 mmHg 83%
17:00 +12°C° 0 mm 3 mps 742 mmHg 84%
18:00 +12°C° 0 mm 3 mps 742 mmHg 86%
19:00 +12°C° 0 mm 3 mps 742 mmHg 87%
20:00 +12°C° 0.1 mm 3 mps 742 mmHg 88%
21:00 +13°C° 0.1 mm 2 mps 742 mmHg 88%
22:00 +13°C° 0.1 mm 2 mps 742 mmHg 89%
23:00 +12°C° 0.2 mm 2 mps 742 mmHg 90%

Tomorrow, 27 October, Tuesday

Time Temperature Precipitation Wind Pressure Humidity
00:00 +12°C° 0.2 mm 1 mps 743 mmHg 92%
01:00 +12°C° 0.2 mm 1 mps 743 mmHg 93%
02:00 +12°C° 0 mm 1 mps 743 mmHg 93%
03:00 +12°C° 0 mm 1 mps 743 mmHg 94%
04:00 +12°C° 0 mm 1 mps 743 mmHg 94%
05:00 +12°C° 0 mm 1 mps 743 mmHg 94%
06:00 +11°C° 0 mm 1 mps 744 mmHg 94%
07:00 +11°C° 0 mm 1 mps 744 mmHg 93%
08:00 +12°C° 0 mm 1 mps 744 mmHg 92%
09:00 +11°C° 0 mm 0 mps 744 mmHg 90%
10:00 +11°C° 0 mm 0 mps 744 mmHg 88%
11:00 +12°C° 0.1 mm 1 mps 744 mmHg 89%
12:00 +12°C° 0.1 mm 1 mps 744 mmHg 90%
13:00 +12°C° 0.1 mm 1 mps 744 mmHg 90%
14:00 +12°C° 0.8 mm 1 mps 744 mmHg 92%
15:00 +12°C° 0.8 mm 1 mps 744 mmHg 94%
16:00 +12°C° 0.8 mm 1 mps 744 mmHg 96%
17:00 +10°C° 0.9 mm 2 mps 744 mmHg 95%
18:00 +10°C° 0.9 mm 3 mps 744 mmHg 93%
19:00 +10°C° 0.9 mm 3 mps 744 mmHg 92%
20:00 +10°C° 0.3 mm 3 mps 745 mmHg 92%
21:00 +10°C° 0.3 mm 2 mps 745 mmHg 91%
22:00 +9°C° 0.3 mm 2 mps 745 mmHg 91%
23:00 +9°C° 0 mm 2 mps 745 mmHg 91%

Day after tomorrow, 28 October, Wednesday

Time Temperature Precipitation Wind Pressure Humidity
00:00 +9°C° 0 mm 2 mps 746 mmHg 91%
01:00 +9°C° 0 mm 2 mps 746 mmHg 91%
02:00 +8°C° 0 mm 3 mps 746 mmHg 92%
03:00 +8°C° 0 mm 3 mps 746 mmHg 93%
04:00 +7°C° 0 mm 3 mps 746 mmHg 93%
05:00 +7°C° 0 mm 3 mps 746 mmHg 93%
06:00 +7°C° 0 mm 3 mps 746 mmHg 92%
07:00 +5°C° 0 mm 3 mps 747 mmHg 92%
08:00 +7°C° 0 mm 4 mps 747 mmHg 85%
09:00 +8°C° 0 mm 5 mps 747 mmHg 78%
10:00 +9°C° 0 mm 6 mps 747 mmHg 71%
11:00 +10°C° 0 mm 6 mps 747 mmHg 68%
12:00 +11°C° 0 mm 6 mps 747 mmHg 64%
13:00 +13°C° 0 mm 6 mps 747 mmHg 61%
14:00 +12°C° 0 mm 5 mps 746 mmHg 64%
15:00 +10°C° 0 mm 5 mps 746 mmHg 67%
16:00 +11°C° 0 mm 4 mps 746 mmHg 70%
17:00 +10°C° 0 mm 4 mps 746 mmHg 72%
18:00 +10°C° 0 mm 4 mps 746 mmHg 74%
19:00 +10°C° 0 mm 4 mps 746 mmHg 76%
20:00 +10°C° 0 mm 4 mps 746 mmHg 76%
21:00 +10°C° 0 mm 4 mps 746 mmHg 76%
22:00 +10°C° 0 mm 4 mps 746 mmHg 75%
23:00 +8°C° 0 mm 4 mps 746 mmHg 78%

29 October, Thursday

Time Temperature Precipitation Wind Pressure Humidity
00:00 +7°C° 0 mm 4 mps 746 mmHg 81%
01:00 +8°C° 0 mm 3 mps 746 mmHg 84%
02:00 +7°C° 0 mm 4 mps 746 mmHg 84%
03:00 +7°C° 0 mm 4 mps 746 mmHg 84%
04:00 +6°C° 0 mm 4 mps 745 mmHg 84%
05:00 +6°C° 0 mm 4 mps 746 mmHg 85%
06:00 +6°C° 0 mm 4 mps 746 mmHg 85%
07:00 +6°C° 0 mm 4 mps 746 mmHg 86%
08:00 +7°C° 0.2 mm 4 mps 746 mmHg 85%
09:00 +8°C° 0.2 mm 5 mps 746 mmHg 84%
10:00 +8°C° 0.2 mm 5 mps 746 mmHg 83%
11:00 +9°C° 0.4 mm 5 mps 746 mmHg 82%
12:00 +9°C° 0.4 mm 5 mps 746 mmHg 80%
13:00 +9°C° 0.4 mm 6 mps 746 mmHg 79%
14:00 +9°C° 0 mm 5 mps 746 mmHg 78%
15:00 +9°C° 0 mm 5 mps 747 mmHg 77%
16:00 +10°C° 0 mm 4 mps 747 mmHg 76%
17:00 +8°C° 0 mm 4 mps 747 mmHg 78%
18:00 +8°C° 0 mm 4 mps 748 mmHg 81%
19:00 +8°C° 0 mm 3 mps 748 mmHg 84%
20:00 +7°C° 0 mm 4 mps 748 mmHg 84%
21:00 +7°C° 0 mm 4 mps 749 mmHg 85%
22:00 +7°C° 0 mm 4 mps 749 mmHg 85%
23:00 +7°C° 0 mm 4 mps 749 mmHg 85%

30 October, Friday

Time Temperature Precipitation Wind Pressure Humidity
00:00 +7°C° 0 mm 4 mps 749 mmHg 86%
01:00 +6°C° 0 mm 4 mps 749 mmHg 86%
02:00 +7°C° 0 mm 5 mps 748 mmHg 84%
03:00 +7°C° 0 mm 5 mps 748 mmHg 83%
04:00 +7°C° 0 mm 6 mps 748 mmHg 81%
05:00 +8°C° 0.1 mm 6 mps 748 mmHg 83%
06:00 +8°C° 0.1 mm 6 mps 748 mmHg 84%
07:00 +8°C° 0.1 mm 7 mps 747 mmHg 85%
08:00 +9°C° 0 mm 7 mps 748 mmHg 85%
09:00 +9°C° 0 mm 7 mps 748 mmHg 85%
10:00 +10°C° 0 mm 7 mps 748 mmHg 86%
11:00 +11°C° 0 mm 7 mps 748 mmHg 84%
12:00 +11°C° 0 mm 7 mps 748 mmHg 83%
13:00 +13°C° 0 mm 6 mps 749 mmHg 82%
14:00 +13°C° 0 mm 6 mps 749 mmHg 82%
15:00 +13°C° 0 mm 6 mps 749 mmHg 83%
16:00 +13°C° 0 mm 6 mps 749 mmHg 83%
17:00 +13°C° 0 mm 6 mps 749 mmHg 82%
18:00 +13°C° 0 mm 5 mps 749 mmHg 81%
19:00 +13°C° 0 mm 5 mps 749 mmHg 80%
20:00 +12°C° 0 mm 5 mps 750 mmHg 81%
21:00 +12°C° 0 mm 5 mps 750 mmHg 81%
22:00 +12°C° 0 mm 5 mps 750 mmHg 82%
23:00 +11°C° 0 mm 4 mps 750 mmHg 83%

31 October, Saturday

Time Temperature Precipitation Wind Pressure Humidity
00:00 +11°C° 0 mm 4 mps 750 mmHg 84%
01:00 +11°C° 0 mm 4 mps 750 mmHg 85%
02:00 +10°C° 0 mm 4 mps 750 mmHg 87%
03:00 +10°C° 0 mm 4 mps 750 mmHg 89%
04:00 +8°C° 0 mm 4 mps 750 mmHg 91%
05:00 +9°C° 0 mm 3 mps 750 mmHg 92%
06:00 +9°C° 0 mm 3 mps 751 mmHg 93%
07:00 +9°C° 0 mm 3 mps 751 mmHg 94%
Show more